Regional Weather Roundup
Issued by NWS

Home | Current Version | Previous Version | Graphics & Text | Print | Product List | Glossary On
Versions: 1 2 3 4 5 6 7 8 9 10 11 12 13 14 15 16 17 18 19 20 21 22 23 24 25 26 27 28 29 30 31 32 33 34 35 36 37 38 39 40 41 42 43 44 45 46 47 48 49 50
000
ASUS43 KDMX 200601
RWRIA

WEATHER ROUNDUP FOR IOWA
NATIONAL WEATHER SERVICE DES MOINES IA
1200 AM CST SAT JAN 20 2018

NOTE: "FAIR" INDICATES FEW OR NO CLOUDS BELOW 12,000 FEET WITH NO
SIGNIFICANT WEATHER AND/OR OBSTRUCTIONS TO VISIBILITY.

* - THESE STATIONS ARE NOT NWS STATIONS...THUS NOT UNDER NWS
QUALITY CONTROL.  THEY ALSO DO NOT REPORT WEATHER SUCH
AS PRECIPITATION OR FOG.

IAZ001>003-012>014-020>022-031>034-043>046-200700-
   NORTHWEST IOWA

CITY           SKY/WX    TMP DP  RH WIND       PRES   REMARKS
CARROLL *      CLOUDY    32  28  86 W9        29.76R WCI  24
CHEROKEE *     CLOUDY    28  27  96 CALM      29.76S
DENISON *      CLOUDY    32  28  86 CALM      29.78R
LE MARS *      CLOUDY    30  28  93 CALM      29.77R
ORANGE CITY *  CLOUDY    34  32  93 NW6       29.75S WCI  29
SHELDON *      CLOUDY    30  30 100 NW6       29.75R WCI  24
SIOUX CITY     CLOUDY    32  29  88 W5        29.77S WCI  27
6HR MIN TEMP:  30; 6HR MAX TEMP:  48;

SPENCER        CLOUDY    31  28  89 NW7       29.75S WCI  24
6HR MIN TEMP:  29; 6HR MAX TEMP:  40;

STORM LAKE *   CLOUDY    32  30  93 W7        29.74F WCI  26
$$

IAZ055>058-069>071-079>083-090>094-200700-
   SOUTHWEST IOWA

CITY           SKY/WX    TMP DP  RH WIND       PRES   REMARKS
ATLANTIC *     CLOUDY    28  28 100 CALM      29.77S
AUDUBON *      CLOUDY    30  27  86 CALM      29.78R
CLARINDA *     CLOUDY    32  30  93 CALM        N/A
COUNCIL BLFS * CLOUDY    36  32  87 SW6       29.77R WCI  31
CRESTON *      CLOUDY    34  28  80 SW8       29.79S WCI  27
HARLAN  *      CLOUDY    30  30 100 SW6       29.80S WCI  24
LAMONI         CLOUDY    35  26  69 S9        29.79S WCI  28
6HR MIN TEMP:  35; 6HR MAX TEMP:  43;

RED OAK *      CLOUDY    32  28  86 SW3       29.79S
SHENANDOAH *   CLOUDY    32  28  86 CALM      29.80R
$$

IAZ047>049-059>061-072>074-084-200700-
   CENTRAL IOWA

CITY           SKY/WX    TMP DP  RH WIND       PRES   REMARKS
AMES           PTCLDY    33  30  88 SW6       29.76R WCI  28
6HR MIN TEMP:  33; 6HR MAX TEMP:  40;

ANKENY *       PTCLDY    37  28  70 SW7       29.78S WCI  32
BOONE *        CLOUDY    36  30  80 W8        29.75R WCI  29
CHARITON *     CLOUDY    37  28  70 SW7       29.79S WCI  32
DES MOINES     CLOUDY    35  27  72 SW5       29.78R WCI  31
6HR MIN TEMP:  35; 6HR MAX TEMP:  44;

GRINNELL*      CLOUDY    35  28  76 SW12      29.78R WCI  27
KNOXVILLE *    CLOUDY    37  27  65 SW6       29.78R WCI  33
MARSHALLTOWN   CLOUDY    33  29  85 SW9       29.75S WCI  25
6HR MIN TEMP:  33; 6HR MAX TEMP:  43;

NEWTON *       CLOUDY    37  28  70 SW12      29.77S WCI  30
PELLA *        CLOUDY    36  27  70 SW6       29.80R WCI  32
$$

IAZ004>006-015-016-023>025-035-036-200700-
   NORTH CENTRAL IOWA

CITY           SKY/WX    TMP DP  RH WIND       PRES   REMARKS
ALGONA *         N/A     34 N/A N/A W3        29.74R
CLARION *      CLOUDY    30  30 100 SW5       29.75R WCI  25
ESTHERVILLE    CLOUDY    34  30  85 NW7       29.74R WCI  28
6HR MIN TEMP:  32; 6HR MAX TEMP:  38;

FORT DODGE *   CLOUDY    32  28  85 SW3       29.76R
MASON CITY     CLOUDY    31  28  89 SW7       29.74R WCI  24
6HR MIN TEMP:  31; 6HR MAX TEMP:  39;

FOREST CITY *    N/A     30  30 100 CALM      29.74R
WEBSTER CITY * CLOUDY    32  30  93 W10       29.74R WCI  24
IOWA FALLS *     N/A     34  31  88 SW8       29.75S WCI  27
$$

IAZ007>011-017>019-026>030-037>042-050>054-066-200700-
   NORTHEAST IOWA

CITY           SKY/WX    TMP DP  RH WIND       PRES   REMARKS
CEDAR RAPIDS     N/A     36  28  73 SW13      29.76R WCI  27
6HR MIN TEMP:  36; 6HR MAX TEMP:  42;

CHARLES CITY *   N/A     34  34 100 SW8       29.73R WCI  27
CLINTON *        N/A     36  29  75 SW12      29.79R WCI  28
DECORAH *        N/A     36  32  87 SW3       29.70S
DUBUQUE          N/A     34  27  75 SW7       29.74S WCI  28
6HR MIN TEMP:  33; 6HR MAX TEMP:  38;

MONTICELLO *     N/A     37  28  70 SW6       29.76R WCI  33
OELWEIN *        N/A     34  34 100 W9        29.73F WCI  26
WATERLOO         N/A     33  28  81 W8        29.74S WCI  26
6HR MIN TEMP:  33; 6HR MAX TEMP:  39;

$$

IAZ064-065-067-068-078-200700-
   EAST CENTRAL IOWA

CITY           SKY/WX    TMP DP  RH WIND       PRES   REMARKS
DAVENPORT        N/A     40  28  62 SW12      29.81R WCI  33
6HR MIN TEMP:  40; 6HR MAX TEMP:  44;

IOWA CITY        N/A     37  27  67 SW3       29.80S
6HR MIN TEMP:  37; 6HR MAX TEMP:  42;

MT. PLEASANT * PTCLDY    36  28  75 S9        29.83R WCI  29
MUSCATINE *      N/A     37  28  70 S7        29.81S WCI  32
QUAD CITIES      N/A     40  29  64 SW9       29.80R WCI  34
6HR MIN TEMP:  40; 6HR MAX TEMP:  45;

$$

IAZ062-063-075>077-085>089-095>099-200700-
   SOUTHEAST IOWA

CITY           SKY/WX    TMP DP  RH WIND       PRES   REMARKS
BURLINGTON     CLOUDY    37  27  67 SW12      29.83R WCI  29
6HR MIN TEMP:  37; 6HR MAX TEMP:  43;

FAIRFIELD *    PTCLDY    39  28  65 SW9       29.81R WCI  33
FORT MADISON * CLOUDY    39  28  65 SW9       29.84S WCI  33
KEOKUK *       CLOUDY    37  28  70 SW7       29.84S WCI  32
OSKALOOSA *      N/A     35  29  78 SW9       29.80R WCI  28
OTTUMWA        CLOUDY    39  28  64 SW10      29.80R WCI  32
6HR MIN TEMP:  39; 6HR MAX TEMP:  43;

WASHINGTON *   CLOUDY    41  30  65 SW14      29.81S
$$

ABBREVIATIONS USED IN REMARKS
   TC - TEMPERATURES IN CELSIUS
  WCI - WIND CHILL INDEX
   HX - HEAT INDEX
  VSB - VISIBILITY
$$





USA.gov is the U.S. government's official web portal to all federal, state and local government web resources and services.